Theta_e
284 285 285 284 283 284 281 281 276 280 281 284 286 285 286 289 291 291 292 292 293 294 293 292 294 294 293 295 297 297 297 297 298 297 300 303 302 303 304 304 304 305 306 306
280 284 284 282 284 284 283 283 283 283 281 286 288 289 289 289 290 290 291 292 293 294 294 294 294 293 295 295 296 297 296 296 298 297 297 299 304 304 303 303 303 304 304 305
272 282 281 276 282 283 283 284 283 279 283 288 288 289 289 290 290 291 292 292 293 294 294 294 293 294 294 295 296 295 296 296 296 297 297 301 303 302 302 302 302 302 303 304
273 277 267 281 287 286 285 286 286 286 286 289 289 290 291 292 291 291 292 294 294 294 295 293 294 295 295 296 294 295 295 295 296 296 298 300 297 298 300 301 301 301 302 303
270 270 278 282 285 284 282 281 287 286 287 288 289 289 289 292 293 292 293 294 295 296 296 294 294 295 294 294 295 294 294 295 295 297 298 297 296 297 298 299 300 299 301 302
275 266 265 279 287 289 287 277 287 287 287 287 288 282 286 292 294 294 294 295 295 295 295 294 294 295 293 293 294 293 294 294 296 296 297 296 296 297 298 299 299 300 300 303
277 270 276 285 288 289 273 277 287 288 288 288 286 288 291 293 293 294 294 294 295 295 294 294 295 295 292 292 292 294 295 295 295 295 296 296 296 297 297 297 297 299 300 302
275 270 271 288 286 279 284 288 288 289 289 288 289 290 291 292 292 292 292 293 294 293 293 294 294 295 292 291 294 294 294 294 295 294 295 296 296 297 296 295 295 298 299 300
278 277 285 287 286 289 289 288 288 289 290 290 289 289 290 289 289 290 290 290 291 291 291 292 293 292 291 293 294 294 293 292 292 293 294 295 297 295 294 295 296 298 299 299
280 282 284 287 290 290 291 289 290 291 290 290 288 288 287 287 287 287 288 288 290 289 289 289 291 291 291 292 293 292 291 290 291 292 293 296 296 294 295 297 297 298 299 297
280 284 285 287 288 289 290 290 290 290 288 287 286 286 286 287 287 288 288 289 289 289 289 290 291 290 292 291 291 289 289 290 291 293 294 295 294 293 296 299 300 298 299 297
279 284 283 284 289 291 289 288 287 286 286 287 287 287 287 286 287 288 288 289 289 289 289 290 291 291 291 293 292 290 289 290 290 292 295 294 292 293 299 304 304 304 304 300
285 287 287 289 290 289 286 286 287 287 287 286 287 287 287 287 288 290 288 288 288 289 289 289 290 290 292 292 291 291 290 291 291 293 294 292 293 292 293 301 304 304 303 304
290 287 284 286 284 286 287 287 288 287 287 288 287 288 288 287 288 288 288 289 289 289 290 289 290 290 292 292 292 291 291 294 292 294 293 293 293 293 296 297 296 298 302 303
289 288 285 284 285 286 287 287 286 286 286 287 288 287 287 287 287 288 289 290 290 290 289 290 290 290 293 293 292 292 292 292 293 293 293 293 293 295 297 297 296 297 298 301
287 285 284 284 283 284 284 286 285 285 286 286 286 287 287 288 288 288 289 290 290 288 289 290 290 291 293 293 292 292 292 293 294 292 291 292 294 294 295 295 295 296 296 296
283 282 281 280 282 283 284 286 286 286 285 286 286 287 287 287 287 287 288 290 291 292 292 291 291 293 294 294 293 292 291 291 295 294 294 294 294 294 294 293 293 293 294 296
286 285 284 282 283 285 286 286 286 286 285 286 287 286 286 286 285 286 288 290 290 290 291 293 293 293 294 294 294 291 291 291 293 293 293 293 293 293 293 293 293 293 294 295
286 285 284 285 285 287 286 286 286 286 286 286 286 285 286 287 287 288 289 289 289 288 291 293 295 294 293 295 293 292 290 290 292 293 293 294 293 293 292 292 292 293 293 292
285 285 285 285 288 287 286 286 286 286 286 286 286 286 285 287 288 288 290 288 290 291 293 293 293 292 292 293 294 292 291 290 290 291 292 292 292 292 292 292 292 292 292 292
284 285 284 285 287 287 287 286 286 285 286 285 285 284 285 286 288 288 287 287 290 293 293 294 293 292 293 293 292 291 292 291 291 290 291 290 291 291 291 291 292 291 290 290
284 284 285 287 286 286 287 287 286 286 285 285 285 285 285 286 287 288 289 289 292 295 293 293 293 294 293 293 291 290 290 290 290 290 290 290 290 289 289 290 289 290 289 290
284 285 286 286 286 286 287 286 286 286 284 284 283 284 283 285 287 286 285 290 293 293 293 293 294 294 293 291 290 290 289 289 289 289 289 289 289 289 289 289 289 289 289 290
283 284 287 288 287 286 285 286 287 287 284 284 284 284 283 284 286 288 289 291 293 292 292 294 294 293 292 290 290 289 289 289 289 288 289 289 288 288 288 289 288 289 289 289
284 286 287 286 286 286 286 286 287 287 284 283 283 284 284 285 285 286 287 289 291 291 290 293 294 293 291 290 290 290 290 289 289 288 288 287 288 288 288 288 289 288 289 289
284 286 287 287 287 287 287 287 286 286 286 280 280 283 283 284 284 284 285 287 287 289 289 289 291 291 291 291 290 290 290 290 289 289 289 288 287 287 287 288 289 289 289 289
285 289 288 287 288 288 287 287 286 283 283 282 281 283 283 283 284 284 285 284 285 286 287 288 288 290 290 290 290 291 290 289 291 289 288 288 287 287 287 288 288 290 290 289
Wind_Speed
10 9 10 15 17 14 13 13 11 25 22 21 15 8 5 6 10 13 14 15 10 10 8 7 11 10 6 10 14 13 13 16 15 9 10 10 8 8 9 9 9 13 11 22
10 10 12 16 14 18 17 16 16 18 19 7 11 7 9 11 12 15 18 18 13 12 12 13 11 8 14 15 14 12 16 16 15 11 8 14 10 9 11 8 9 10 10 18
7 5 10 9 5 2 3 3 6 12 15 3 8 11 12 14 14 16 16 8 13 15 17 15 9 13 14 15 14 10 16 18 12 13 15 9 6 8 13 9 6 9 12 15
5 5 3 7 9 5 7 7 9 9 8 7 11 18 16 14 15 15 13 17 17 17 17 11 12 13 14 15 11 13 15 12 17 15 10 7 6 9 13 11 8 6 14 15
1 2 11 11 4 2 3 9 7 6 9 18 21 19 17 14 13 12 17 16 16 17 19 14 15 17 13 17 12 12 13 17 13 11 13 7 9 13 15 14 11 5 13 13
3 1 7 7 5 3 3 15 4 9 16 14 10 14 17 18 19 21 17 15 16 15 17 16 19 18 15 14 16 14 15 11 14 17 12 10 11 15 14 14 13 5 14 12
10 6 11 11 9 1 3 9 17 14 7 12 12 12 21 21 20 19 18 20 20 20 20 20 19 19 15 15 17 15 10 13 13 17 11 12 14 14 15 15 12 6 11 10
2 4 13 3 4 2 9 10 10 7 7 15 19 21 21 21 21 22 24 23 22 21 21 18 18 18 15 18 15 10 10 12 14 11 12 12 15 16 17 14 12 8 8 8
11 10 7 4 6 6 6 5 5 12 16 16 21 23 24 21 23 22 23 21 20 20 22 20 15 15 17 13 11 12 11 10 13 16 12 14 13 16 14 15 10 7 7 6
3 4 5 10 15 4 4 5 12 13 17 18 21 21 24 23 22 22 21 21 20 21 22 21 16 17 14 17 12 13 13 14 15 15 13 13 10 12 12 13 7 7 8 5
8 13 10 9 3 5 7 10 15 14 13 17 19 21 22 21 23 22 22 22 20 20 20 21 19 18 17 12 10 10 13 13 14 10 12 11 10 11 11 8 8 8 9 7
9 7 6 6 4 5 9 9 12 15 19 17 19 20 22 22 22 22 23 23 23 23 21 20 19 17 15 13 11 14 14 12 9 11 9 8 9 11 17 14 14 16 14 5
8 3 7 6 5 4 5 11 12 15 16 20 19 19 22 23 22 30 25 25 23 22 21 19 18 17 14 12 13 13 12 12 9 14 7 7 9 7 8 4 14 10 8 12
12 2 3 2 5 6 7 9 13 13 14 19 22 20 21 23 25 24 24 23 23 21 19 16 15 15 15 12 12 12 12 20 11 9 6 8 6 8 8 5 7 3 10 16
6 4 4 2 4 5 7 11 14 16 19 18 17 19 22 25 24 24 24 22 21 18 15 13 13 13 12 12 12 11 9 9 8 6 7 9 7 8 5 6 6 11 10 14
3 2 4 4 5 6 7 13 14 15 16 18 18 21 23 22 22 22 21 22 19 13 14 13 13 13 12 11 10 8 9 9 10 5 5 5 4 8 8 10 12 13 11 10
3 4 1 2 4 7 9 11 12 13 17 16 19 21 22 22 21 21 21 20 20 16 11 12 13 14 12 11 6 2 3 5 7 6 8 8 8 9 10 11 12 10 9 10
6 5 4 2 3 7 9 12 11 13 13 16 17 18 19 20 20 21 21 19 17 16 15 13 13 13 11 12 8 6 5 5 5 8 7 9 9 9 11 12 12 11 10 10
6 5 1 2 3 6 8 9 11 11 12 13 16 16 17 18 18 19 18 16 15 14 14 14 22 17 13 12 10 7 7 8 8 8 9 14 10 10 10 11 10 9 8 7
6 4 2 2 4 6 8 7 10 11 11 12 13 15 16 17 17 18 16 15 15 11 13 15 14 14 15 17 15 7 8 9 9 9 9 9 10 10 11 13 11 10 8 7
7 5 3 2 3 7 5 8 9 10 11 8 10 11 13 15 15 15 14 11 15 15 15 18 13 10 9 13 13 10 10 9 9 8 8 8 9 9 8 8 7 7 6 6
5 4 3 2 4 6 5 7 8 10 9 9 9 8 11 14 13 13 13 12 9 20 10 8 9 19 14 17 9 9 10 10 8 8 8 8 8 8 8 8 8 8 6 6
5 4 4 4 4 4 7 6 8 8 7 8 7 8 8 6 7 8 9 14 9 15 8 7 17 20 20 10 8 8 9 9 8 8 8 8 8 8 7 7 7 7 6 6
5 5 4 4 4 4 4 5 6 6 6 7 6 6 6 7 6 5 7 13 18 16 10 11 13 16 15 7 7 6 6 7 7 7 7 11 6 6 6 6 7 6 6 7
6 5 4 5 4 3 3 4 5 5 6 6 6 6 6 4 3 6 6 7 15 11 9 17 14 15 6 6 7 7 6 6 5 6 6 6 5 5 5 5 5 5 5 5
6 4 3 5 3 2 2 3 3 5 4 3 3 4 4 4 4 4 4 10 6 11 7 8 8 7 6 6 6 6 6 5 5 5 6 5 5 5 5 4 4 4 4 3
5 6 3 3 3 2 2 3 3 4 4 3 4 4 4 4 5 6 7 5 6 6 5 5 6 9 7 6 6 5 5 5 7 5 4 4 4 3 3 3 3 4 4 3
Wind_Direction
271 284 292 283 285 277 255 251 237 285 277 284 294 307 355 333 330 334 324 320 306 311 288 298 311 299 282 299 301 303 298 295 288 268 274 260 254 268 277 291 315 302 286 295
285 267 269 277 284 283 266 263 265 274 287 302 317 328 333 316 318 316 312 302 299 302 307 308 302 307 311 304 298 304 297 296 294 288 287 297 264 256 253 275 295 310 284 290
267 326 311 301 241 244 268 235 275 293 294 285 308 310 313 310 305 301 302 315 311 302 300 296 301 310 301 301 292 295 301 294 293 305 297 297 285 264 270 262 266 308 284 287
270 354 338 242 314 291 277 275 274 284 306 302 296 297 297 297 297 295 300 300 298 298 292 284 302 297 292 297 279 297 292 295 303 295 296 284 283 304 303 271 258 281 286 287
290 210 276 290 249 254 273 298 240 273 302 305 303 303 291 295 287 287 291 291 291 287 288 294 295 299 286 294 286 288 296 297 295 306 298 295 305 300 301 287 268 264 281 269
137 185 254 235 277 347 267 296 170 316 311 317 336 307 300 314 302 298 294 296 295 295 298 296 297 295 282 286 294 283 290 285 300 301 288 293 293 295 295 282 269 244 275 255
228 240 273 250 271 262 62 272 316 324 313 303 301 286 298 302 304 301 302 302 295 288 288 287 295 292 277 293 284 285 274 293 296 290 291 294 292 293 295 284 271 236 258 261
151 180 264 179 19 94 263 304 304 311 317 307 301 302 304 305 300 299 299 300 296 291 289 287 289 284 293 288 288 278 285 294 293 294 298 297 291 288 295 284 262 230 249 258
181 217 228 292 277 263 320 335 344 318 313 312 313 309 309 309 308 302 301 299 298 294 295 295 290 293 285 287 296 285 295 296 301 294 290 292 285 290 290 275 237 211 236 242
20 264 260 304 300 354 340 309 315 312 312 313 309 315 311 307 307 307 305 302 299 296 292 289 292 286 284 285 282 289 293 295 294 279 287 284 287 289 287 280 220 193 214 207
260 285 295 275 317 317 320 312 313 323 326 317 312 310 310 310 310 307 305 302 300 298 294 291 290 288 283 279 278 289 294 293 283 284 286 280 281 285 292 268 197 183 199 172
239 220 217 242 269 274 319 330 332 328 327 326 318 317 318 311 309 306 304 304 300 296 292 290 289 286 285 280 277 280 285 278 279 290 275 279 285 288 296 248 198 171 197 197
252 279 248 238 248 321 346 336 337 333 324 318 320 320 317 312 311 310 307 301 300 297 292 289 289 286 283 277 275 275 277 281 282 286 272 268 275 277 285 232 177 146 208 190
286 19 324 338 316 353 342 336 328 321 319 325 323 323 316 315 314 310 308 309 306 303 298 298 292 289 284 276 279 279 278 282 287 273 265 265 252 265 240 159 163 169 167 140
205 226 227 268 6 344 340 331 331 330 329 325 322 322 320 318 317 316 314 312 309 309 312 300 294 290 289 285 282 282 282 279 274 266 248 243 254 253 130 147 145 135 132 134
219 300 346 1 331 319 320 332 331 326 324 325 325 324 321 319 318 318 321 320 319 315 315 311 305 304 302 293 288 290 286 299 295 244 233 238 205 103 115 111 111 116 122 124
179 276 281 313 322 325 330 323 322 321 327 327 325 323 324 325 325 331 330 327 334 330 315 319 318 316 306 281 263 299 357 334 359 59 91 104 107 107 107 106 98 95 97 103
156 140 143 203 299 320 322 325 328 329 328 326 323 326 327 331 334 333 335 338 346 9 19 11 6 354 356 37 69 61 27 349 56 81 90 90 95 100 103 99 97 97 90 95
138 145 139 12 326 320 320 326 328 326 325 325 334 331 330 333 336 338 339 347 357 359 6 9 17 19 24 42 53 49 36 24 55 67 83 90 88 93 97 98 96 94 88 86
157 159 159 282 309 322 322 324 321 328 324 326 327 333 334 336 341 342 344 357 2 359 8 16 18 27 30 35 42 47 45 41 46 57 61 71 82 87 96 99 104 102 105 107
175 178 202 267 310 317 327 324 324 329 319 321 321 319 328 341 341 342 348 358 360 8 12 19 28 24 34 35 35 38 44 48 52 61 69 75 81 83 88 89 90 89 86 89
169 183 210 265 297 306 319 316 325 323 314 307 318 316 331 342 341 346 344 349 352 5 3 17 22 34 34 37 31 33 42 45 46 50 58 66 76 85 93 103 114 117 113 107
172 197 219 262 259 277 311 314 320 321 300 307 309 318 324 312 329 341 343 345 357 3 5 24 38 36 32 27 33 35 40 46 48 50 56 61 62 68 77 80 81 86 84 85
183 203 237 230 249 249 286 298 287 305 293 300 307 308 319 326 334 341 332 344 358 9 359 20 39 44 33 23 30 37 42 56 59 66 70 67 66 66 70 77 78 78 83 79
192 213 223 252 241 235 252 272 288 295 302 308 305 312 316 307 304 325 341 344 356 10 360 359 34 31 40 30 27 29 45 71 65 61 63 69 66 63 65 71 80 85 85 84
201 202 212 212 209 204 220 266 267 285 288 302 293 304 310 313 318 346 336 352 357 2 1 358 1 19 16 23 23 22 35 47 51 74 86 77 70 59 56 64 69 93 101 97
201 212 197 193 190 203 250 252 270 275 293 288 283 305 306 324 333 343 355 349 343 347 354 2 358 8 15 22 17 14 42 38 52 40 67 81 87 93 79 68 73 80 91 84